Regional Weather Roundup
Issued by NWS

Home | Current Version | Previous Version | Text Only | Print | Product List | Glossary On
Versions: 1 2 3 4 5 6 7 8 9 10 11 12 13 14 15 16 17 18 19 20 21 22 23 24 25 26 27 28 29 30 31 32 33 34 35 36 37 38 39 40 41 42 43 44 45 46 47 48 49 50
000
ASUS43 KLSX 100457
RWRMO

WEATHER SUMMARY FOR MISSOURI
NATIONAL WEATHER SERVICE SPRINGFIELD MO
1100 PM CST TUE FEB 09 2016

NOTE: "FAIR" INDICATES FEW OR NO CLOUDS BELOW 12,000 FEET WITH NO
       SIGNIFICANT WEATHER AND/OR OBSTRUCTIONS TO VISIBILITY.
       CURRENT SKY AND/OR WEATHER CONDITIONS ARE NOT AVAILABLE FOR
       CHILLICOTHE AND FARMINGTON.

MOZ001>031-035>038-043-044-053-054-100600-
...NORTHERN AND WESTERN MISSOURI...

CITY           SKY/WX    TMP DP  RH WIND       PRES   REMARKS
KANSAS CTY INT CLEAR     19  10  68 W7        30.24F WCI  10
LEE`S SUMMIT   CLEAR     23   9  55 NW13      30.25F WCI  11
ST JOSEPH      CLEAR     18   9  68 W5        30.26F WCI  11
CHILLICOTHE      N/A     21  10  62 NW7       30.23S WCI  12

$$
MOZ066>068-077>081-088>096-101>105-100600-
...SOUTHWEST MISSOURI...

CITY           SKY/WX    TMP DP  RH WIND       PRES   REMARKS
SPRINGFIELD    CLEAR     23   4  44 NW15      30.22S WCI  10
JOPLIN         CLEAR     21   7  54 NW7       30.30S WCI  12

$$
MOZ032>034-039>042-045>050-055>058-069>072-100600-
...CENTRAL MISSOURI...

CITY           SKY/WX    TMP DP  RH WIND       PRES   REMARKS
COLUMBIA       NOT AVBL
JEFFERSON CITY CLEAR     20   4  50 NW17G30   30.22R WCI   5
ROLLA          CLEAR     19   6  57 NW15G23   30.13R WCI   5
SEDALIA        CLEAR     21   8  57 NW9       30.24S WCI  11

$$
MOZ051-052-059>065-100600-
...EAST CENTRAL MISSOURI...

CITY           SKY/WX    TMP DP  RH WIND       PRES   REMARKS
ST LOUIS INTL  PTCLDY    21   7  54 NW16      30.13R WCI   7

$$
MOZ072>076-082>087-097>100-106>115-100600-
...SOUTH CENTRAL AND SOUTHEAST MISSOURI...

CITY           SKY/WX    TMP DP  RH WIND       PRES   REMARKS
CAPE GIRARDEAU CLEAR     19  10  68 W9        30.13R WCI   8
POPLAR BLUFF   CLEAR     24  11  57 NW9       30.16R WCI  14
WEST PLAINS    CLEAR     23   3  42 NW15G23   30.15R WCI  10

$$


USA.gov is the U.S. government's official web portal to all federal, state and local government web resources and services.